Regional Weather Roundup
Issued by NWS

Home | Current Version | Previous Version | Text Only | Print | Product List | Glossary On
Versions: 1 2 3 4 5 6 7 8 9 10 11 12 13 14 15 16 17 18 19 20 21 22 23 24 25 26 27 28 29 30 31 32 33 34 35 36 37 38 39 40 41 42 43 44 45 46 47 48 49 50
000
ASUS45 KTFX 050410
RWRMT
MONTANA REGIONAL WEATHER ROUNDUP
NATIONAL WEATHER SERVICE GREAT FALLS MT
1000 PM MDT TUE AUG 04 2015

NOTE: "FAIR" INDICATES FEW OR NO CLOUDS BELOW 12000 FEET WITH NO
SIGNIFICANT WEATHER AND/OR OBSTRUCTIONS TO VISIBILITY.

MTZ001>007-043-050500-
WEST OF THE DIVIDE

CITY           SKY/WX    TMP DP  RH WIND       PRES   REMARKS
KALISPELL      CLEAR     64  40  41 S3        29.87R
MISSOULA       CLEAR     74  41  30 E12       29.92R
BUTTE          PTCLDY    61  51  70 VRB3      30.10S
MULLAN PASS    CLEAR     62  34  35 SW6       30.07F
DEER LODGE       N/A     63  46  55 S5        30.06R
EUREKA           N/A     75  37  25 SE3       29.86R
HAMILTON         N/A     63  48  59 E2        29.96R
LIBBY            N/A     72  37  28 SE7       29.86R
$$

MTZ008-052>055-050500-
SOUTHWEST MONTANA

CITY           SKY/WX    TMP DP  RH WIND       PRES   REMARKS
BOZEMAN        PTCLDY    64  52  64 CALM      30.05R
DILLON         PTCLDY    63  53  70 NE16      30.04S
W YELLOWSTONE  MOCLDY    54  48  82 S6        30.23R
$$

MTZ009-010-012-014-046-048-049-054-050500-
EAST SLOPES AND CENTRAL MONTANA

CITY           SKY/WX    TMP DP  RH WIND       PRES   REMARKS
CUT BANK       CLEAR     65  44  46 SW8       29.93R
GREAT FALLS    PTCLDY    68  51  54 SE8       29.95R
MALMSTROM AFB  PTCLDY    62  53  71 SE8       29.95R
HELENA         MOCLDY    74  45  35 SW3       29.96R
$$

MTZ011-013-016-021-045-047-050-051-050500-
NORTH CENTRAL MONTANA

CITY           SKY/WX    TMP DP  RH WIND       PRES   REMARKS
HAVRE          CLOUDY    73  52  47 S12       29.87R
LEWISTOWN      PTCLDY    63  51  65 CALM      30.01R
CHINOOK          N/A     68  59  73 CALM      29.88R
FORT BENTON      N/A     68  48  49 CALM      29.91R
$$

MTZ017>020-022>027-061-062-050500-
NORTHEAST MONTANA

CITY           SKY/WX    TMP DP  RH WIND       PRES   REMARKS
GLASGOW        LGT RAIN  69  62  78 SE7       29.92R
JORDAN           N/A     66  62  87 CALM      29.94F
SIDNEY         CLOUDY   N/A N/A N/A S12       29.93R
WOLF POINT     CLOUDY    69  65  86 S7        29.90R
MALTA            N/A     72  56  57 SE3       29.88R
PLENTYWOOD       N/A     77  55  47 CALM      29.91R
POPLAR           N/A     70  64  83 SE8       29.93R
$$

MTZ028>42-056>058-050500-
SOUTHCENTRAL AND SOUTHEAST MONTANA

CITY           SKY/WX    TMP DP  RH WIND       PRES   REMARKS
BAKER          LGT RAIN  65  62  90 NE5       30.03R
BILLINGS       MOCLDY    68  52  56 W7        30.02R
LIVINGSTON     CLEAR     63  54  72 SE3       30.07R
MILES CITY     CLOUDY    66  59  78 W5        29.94S
EKALAKA          N/A     62  55  77 E5        30.00R
FORSYTH          N/A     66  57  72 NE5       29.95F
LAUREL           N/A     64  52  65 CALM      30.01R
$$

REGIONAL REPORTS...DAKOTAS

CITY           SKY/WX    TMP DP  RH WIND       PRES   REMARKS
WILLISTON      CLOUDY    77  55  46 SE15      29.89S
MINOT          MOCLDY    66  52  60 E9        29.97S
DICKINSON      CLOUDY    68  57  68 S6        29.95R
CROSBY         FAIR      66  55  68 E10       29.92S
BISMARCK       PTCLDY    71  61  70 SE8       29.97R
GRAND FORKS    CLEAR     66  56  70 NE7       30.03R
FARGO          CLEAR     61  56  83 E6        30.02R
BUFFALO SD       N/A     63  60  90 N14       29.97R
RAPID CITY     CLOUDY    70  60  70 SE9       29.98R
$$

REGIONAL REPORTS...WYOMING/IDAHO/WASHINGTON

CITY           SKY/WX    TMP DP  RH WIND       PRES   REMARKS
GILLETTE       MOCLDY    63  55  75 CALM      30.05R
SHERIDAN       PTCLDY    64  55  72 W8        30.06R
BUFFALO WY     CLEAR     60  54  80 W6        30.12R
CODY           PTCLDY    59  46  63 CALM      30.13R
YELLOWSTONE LA   N/A     45  44  97 VRB3      30.31R
IDAHO FALLS    PTCLDY    68  41  37 SW7       30.06R
SALMON         PTCLDY    70  43  37 S3        29.92S
BOISE          PTCLDY    84  47  27 E5        29.86R
SPOKANE        PTCLDY    77  37  23 SW6       29.84S
$$

REGIONAL REPORTS...ALBERTA

CITY           SKY/WX    TMP DP  RH WIND       PRES   REMARKS
EDMONTON       MOCLDY    57  54  88 NE2       29.91R
CALGARY        LGT RAIN  55  54  94 NW9       29.98R
LETHBRIDGE     PTCLDY    63  50  63 N15G26    29.92R
MEDICINE HAT   CLEAR     73  52  46 N6        29.83R
WATERTON GATE    N/A     57  46  67 NE13G21     N/A
CARDSTON         N/A     57  48  72 N12G17      N/A
MILK RIVER       N/A     64  46  52 N2          N/A
$$

REGIONAL REPORTS...SASKATCHEWAN

CITY           SKY/WX    TMP DP  RH WIND       PRES   REMARKS
SWIFT CURRENT  CLOUDY    66  59  77 SW8       29.87R
REGINA         LGT RAIN  68  59  73 E8        29.94R
SASKATOON      MOCLDY    66  59  77 SE17G25   29.81F
CYPRESS HILLS    N/A     64  52  63 S5          N/A
VAL MARIE        N/A     68  59  73 NW3         N/A
ROCKGLEN         N/A    N/A N/A N/A S6          N/A
ASSINIBOIA       N/A     59  57  94 N7          N/A
$$


USA.gov is the U.S. government's official web portal to all federal, state and local government web resources and services.